Location: Debolt
(55.2626°N, 118.0981°W)
Time: 06:52:07
(UTC+00:00)

AO-27 - Visible Passes

Search period start: 01 December 2023 00:00
Search period end: 11 December 2023 00:00
Orbit: 785 x 796 km, 98.8° (Epoch: 29 November)

Date Brightness Start Highest point End Pass type
(mag) Time Alt. Az. Time Alt. Az. Time Alt. Az.
01 Dec 9.6 01:25:30 12° NNE 01:25:30 12° NNE 01:26:38 10° NNE visible
01 Dec 9.6 03:06:13 18° N 03:06:13 18° N 03:07:39 10° N visible
01 Dec 10.6 04:46:58 11° NNW 04:46:58 11° NNW 04:47:05 10° NNW visible
02 Dec 9.5 02:36:29 18° N 02:36:29 18° N 02:38:00 10° N visible
02 Dec 10.3 04:17:13 13° NNW 04:17:13 13° NNW 04:17:50 10° NNW visible
03 Dec 9.5 02:06:44 16° NNE 02:06:44 16° NNE 02:08:12 10° N visible
03 Dec 10.0 03:47:28 16° NNW 03:47:28 16° NNW 03:48:27 10° NNW visible
04 Dec 9.6 01:37:00 13° NNE 01:37:00 13° NNE 01:38:11 10° N visible
04 Dec 9.7 03:17:44 17° N 03:17:44 17° N 03:18:56 10° N visible
05 Dec 9.7 01:07:15 10° NNE 01:07:15 10° NNE 01:07:19 10° NNE visible
05 Dec 9.6 02:47:59 17° N 02:47:59 17° N 02:49:19 10° N visible
05 Dec 10.4 04:28:42 12° NNW 04:28:42 12° NNW 04:29:00 10° NNW visible
06 Dec 9.6 02:18:13 16° NNE 02:18:13 16° NNE 02:19:35 10° N visible
06 Dec 10.1 03:58:57 14° NNW 03:58:57 14° NNW 03:59:40 10° NNW visible
07 Dec 9.6 01:48:28 14° NNE 01:48:28 14° NNE 01:49:39 10° N visible
07 Dec 9.9 03:29:12 16° N 03:29:12 16° N 03:30:11 10° NNW visible
08 Dec 9.7 01:18:42 11° NNE 01:18:42 11° NNE 01:19:19 10° NNE visible
08 Dec 9.7 02:59:26 16° N 02:59:26 16° N 03:00:36 10° N visible
09 Dec 9.6 02:29:41 16° N 02:29:41 16° N 02:30:54 10° N visible
09 Dec 10.3 04:10:24 12° NNW 04:10:24 12° NNW 04:10:51 10° NNW visible
10 Dec 9.6 01:59:54 14° NNE 01:59:54 14° NNE 02:01:04 10° N visible
10 Dec 10.0 03:40:38 15° NNW 03:40:38 15° NNW 03:41:25 10° NNW visible
